Time,TemperatureF,DewpointF,PressureIn,WindDirection,WindDirectionDegrees,WindSpeedMPH,WindSpeedGustMPH,Humidity,HourlyPrecipIn,Conditions,Clouds,dailyrainin,SoftwareType,DateUTC
2013-08-25 00:01:00,80.0,71.0,29.91,South,187,1.0,3.0,73,0.00,,,0.00,Meteo,2013-08-25 05:01:00,
2013-08-25 00:06:00,80.0,71.0,29.91,South,186,0.0,1.0,73,0.00,,,0.00,Meteo,2013-08-25 05:06:00,
2013-08-25 00:11:00,80.0,71.0,29.91,SSW,195,1.0,2.0,73,0.00,,,0.00,Meteo,2013-08-25 05:11:00,
2013-08-25 00:16:00,80.0,71.0,29.92,SW,221,2.0,5.0,73,0.00,,,0.00,Meteo,2013-08-25 05:16:00,
2013-08-25 00:21:00,80.0,71.0,29.91,South,191,0.0,1.0,73,0.00,,,0.00,Meteo,2013-08-25 05:21:00,
2013-08-25 00:26:00,80.0,71.0,29.91,SE,129,0.0,2.0,74,0.00,,,0.00,Meteo,2013-08-25 05:26:00,
2013-08-25 00:31:00,80.0,71.0,29.92,SSE,160,1.0,3.0,74,0.00,,,0.00,Meteo,2013-08-25 05:31:00,
2013-08-25 00:36:00,80.0,71.0,29.92,SSE,167,0.0,1.0,74,0.00,,,0.00,Meteo,2013-08-25 05:36:00,
2013-08-25 00:41:00,79.0,70.0,29.92,ESE,113,1.0,2.0,74,0.00,,,0.00,Meteo,2013-08-25 05:41:00,
2013-08-25 00:46:00,79.0,70.0,29.92,SSE,168,1.0,2.0,74,0.00,,,0.00,Meteo,2013-08-25 05:46:00,
2013-08-25 00:51:00,79.0,70.0,29.92,WSW,257,1.0,3.0,74,0.00,,,0.00,Meteo,2013-08-25 05:51:00,
2013-08-25 00:56:00,79.0,70.0,29.91,NNW,334,0.0,1.0,75,0.00,,,0.00,Meteo,2013-08-25 05:56:00,
2013-08-25 01:01:00,79.0,70.0,29.91,SE,133,1.0,4.0,75,0.00,,,0.00,Meteo,2013-08-25 06:01:00,
2013-08-25 01:06:00,79.0,70.0,29.91,SSW,197,1.0,2.0,75,0.00,,,0.00,Meteo,2013-08-25 06:06:00,
2013-08-25 01:11:00,79.0,70.0,29.91,SSE,168,2.0,5.0,75,0.00,,,0.00,Meteo,2013-08-25 06:11:00,
2013-08-25 01:16:00,79.0,70.0,29.91,South,190,0.0,2.0,75,0.00,,,0.00,Meteo,2013-08-25 06:16:00,
2013-08-25 01:21:00,79.0,70.0,29.91,East,90,0.0,1.0,75,0.00,,,0.00,Meteo,2013-08-25 06:21:00,
2013-08-25 01:27:00,79.0,71.0,29.90,West,273,1.0,3.0,76,0.00,,,0.00,Meteo,2013-08-25 06:27:00,
2013-08-25 01:32:00,79.0,71.0,29.91,SW,231,0.0,2.0,76,0.00,,,0.00,Meteo,2013-08-25 06:32:00,
2013-08-25 01:37:00,79.0,71.0,29.90,SSE,168,2.0,7.0,76,0.00,,,0.00,Meteo,2013-08-25 06:37:00,
2013-08-25 01:42:00,79.0,71.0,29.90,South,179,1.0,3.0,76,0.00,,,0.00,Meteo,2013-08-25 06:42:00,
2013-08-25 01:47:00,79.0,71.0,29.90,South,182,1.0,4.0,76,0.00,,,0.00,Meteo,2013-08-25 06:47:00,
2013-08-25 01:53:00,79.0,71.0,29.90,SSW,199,0.0,1.0,76,0.00,,,0.00,Meteo,2013-08-25 06:53:00,
2013-08-25 01:58:00,79.0,71.0,29.90,SSW,197,1.0,2.0,76,0.00,,,0.00,Meteo,2013-08-25 06:58:00,
2013-08-25 02:03:00,79.0,71.0,29.90,South,178,1.0,1.0,76,0.00,,,0.00,Meteo,2013-08-25 07:03:00,
2013-08-25 02:08:00,79.0,70.0,29.90,East,91,1.0,3.0,75,0.00,,,0.00,Meteo,2013-08-25 07:08:00,
2013-08-25 02:13:00,79.0,70.0,29.90,South,186,2.0,5.0,75,0.00,,,0.00,Meteo,2013-08-25 07:13:00,
2013-08-25 02:18:00,79.0,70.0,29.90,South,177,1.0,4.0,75,0.00,,,0.00,Meteo,2013-08-25 07:18:00,
2013-08-25 02:23:00,79.0,70.0,29.90,South,188,3.0,6.0,75,0.00,,,0.00,Meteo,2013-08-25 07:23:00,
2013-08-25 02:28:00,79.0,70.0,29.90,South,173,1.0,4.0,75,0.00,,,0.00,Meteo,2013-08-25 07:28:00,
2013-08-25 02:33:00,79.0,70.0,29.89,SSE,162,1.0,1.0,75,0.00,,,0.00,Meteo,2013-08-25 07:33:00,
2013-08-25 02:38:00,79.0,71.0,29.90,SSW,206,3.0,8.0,76,0.00,,,0.00,Meteo,2013-08-25 07:38:00,
2013-08-25 02:43:00,79.0,71.0,29.89,SSW,196,3.0,9.0,76,0.00,,,0.00,Meteo,2013-08-25 07:43:00,
2013-08-25 02:48:00,79.0,71.0,29.89,South,169,1.0,4.0,76,0.00,,,0.00,Meteo,2013-08-25 07:48:00,
2013-08-25 02:53:00,79.0,71.0,29.89,SSE,165,1.0,4.0,76,0.00,,,0.00,Meteo,2013-08-25 07:53:00,
2013-08-25 02:58:00,79.0,71.0,29.89,SSW,208,1.0,4.0,76,0.00,,,0.00,Meteo,2013-08-25 07:58:00,
2013-08-25 03:03:00,79.0,71.0,29.89,SW,216,2.0,6.0,76,0.00,,,0.00,Meteo,2013-08-25 08:03:00,
2013-08-25 03:08:00,79.0,71.0,29.89,SSE,150,1.0,3.0,76,0.00,,,0.00,Meteo,2013-08-25 08:08:00,
2013-08-25 03:13:00,79.0,71.0,29.88,South,187,2.0,4.0,76,0.00,,,0.00,Meteo,2013-08-25 08:13:00,
2013-08-25 03:18:00,79.0,71.0,29.88,SW,235,1.0,2.0,76,0.00,,,0.00,Meteo,2013-08-25 08:18:00,
2013-08-25 03:23:00,79.0,71.0,29.88,South,170,1.0,3.0,76,0.00,,,0.00,Meteo,2013-08-25 08:23:00,
2013-08-25 03:28:00,79.0,71.0,29.88,South,190,1.0,5.0,77,0.00,,,0.00,Meteo,2013-08-25 08:28:00,
2013-08-25 03:33:00,79.0,71.0,29.88,SW,235,1.0,5.0,76,0.00,,,0.00,Meteo,2013-08-25 08:33:00,
2013-08-25 03:38:00,79.0,71.0,29.88,SSW,192,3.0,6.0,76,0.00,,,0.00,Meteo,2013-08-25 08:38:00,
2013-08-25 03:43:00,79.0,71.0,29.88,SSW,204,4.0,15.0,76,0.00,,,0.00,Meteo,2013-08-25 08:43:00,
2013-08-25 03:48:00,79.0,71.0,29.88,South,172,4.0,11.0,76,0.00,,,0.00,Meteo,2013-08-25 08:48:00,
2013-08-25 03:53:00,79.0,71.0,29.87,South,171,2.0,6.0,76,0.00,,,0.00,Meteo,2013-08-25 08:53:00,
2013-08-25 03:58:00,79.0,71.0,29.87,South,182,3.0,6.0,76,0.00,,,0.00,Meteo,2013-08-25 08:58:00,
2013-08-25 04:03:00,79.0,71.0,29.87,SSW,211,3.0,6.0,76,0.00,,,0.00,Meteo,2013-08-25 09:03:00,
2013-08-25 04:08:00,79.0,71.0,29.87,South,188,5.0,13.0,76,0.00,,,0.00,Meteo,2013-08-25 09:08:00,
2013-08-25 04:13:00,79.0,71.0,29.87,SSW,206,2.0,5.0,76,0.00,,,0.00,Meteo,2013-08-25 09:13:00,
2013-08-25 04:18:00,79.0,71.0,29.87,SSW,193,2.0,3.0,76,0.00,,,0.00,Meteo,2013-08-25 09:18:00,
2013-08-25 04:23:00,79.0,71.0,29.87,SSW,202,4.0,9.0,76,0.00,,,0.00,Meteo,2013-08-25 09:23:00,
2013-08-25 04:28:00,79.0,71.0,29.88,South,181,2.0,4.0,76,0.00,,,0.00,Meteo,2013-08-25 09:28:00,
2013-08-25 04:33:00,79.0,71.0,29.88,South,183,4.0,8.0,76,0.00,,,0.00,Meteo,2013-08-25 09:33:00,
2013-08-25 04:38:00,79.0,71.0,29.88,South,182,1.0,3.0,76,0.00,,,0.00,Meteo,2013-08-25 09:38:00,
2013-08-25 04:43:00,79.0,70.0,29.88,SSW,209,1.0,4.0,75,0.00,,,0.00,Meteo,2013-08-25 09:43:00,
2013-08-25 04:48:00,79.0,70.0,29.88,South,179,4.0,14.0,75,0.00,,,0.00,Meteo,2013-08-25 09:48:00,
2013-08-25 04:53:00,79.0,70.0,29.88,SSW,199,3.0,4.0,75,0.00,,,0.00,Meteo,2013-08-25 09:53:00,
2013-08-25 04:58:00,79.0,70.0,29.88,SSE,166,2.0,7.0,75,0.00,,,0.00,Meteo,2013-08-25 09:58:00,
2013-08-25 05:03:00,79.0,70.0,29.88,South,182,3.0,9.0,75,0.00,,,0.00,Meteo,2013-08-25 10:03:00,
2013-08-25 05:08:00,79.0,70.0,29.88,South,178,4.0,7.0,75,0.00,,,0.00,Meteo,2013-08-25 10:08:00,
2013-08-25 05:13:00,79.0,70.0,29.88,SSW,201,3.0,6.0,75,0.00,,,0.00,Meteo,2013-08-25 10:13:00,
2013-08-25 05:18:00,79.0,70.0,29.88,SSW,209,3.0,7.0,75,0.00,,,0.00,Meteo,2013-08-25 10:18:00,
2013-08-25 05:23:00,79.0,70.0,29.88,SW,224,4.0,8.0,75,0.00,,,0.00,Meteo,2013-08-25 10:23:00,
2013-08-25 05:28:00,79.0,70.0,29.88,SSW,203,3.0,8.0,75,0.00,,,0.00,Meteo,2013-08-25 10:28:00,
2013-08-25 05:33:00,79.0,70.0,29.88,SSW,211,3.0,10.0,74,0.00,,,0.00,Meteo,2013-08-25 10:33:00,
2013-08-25 05:38:00,79.0,70.0,29.88,SSW,195,4.0,7.0,74,0.00,,,0.00,Meteo,2013-08-25 10:38:00,
2013-08-25 05:43:00,80.0,71.0,29.89,South,187,4.0,9.0,74,0.00,,,0.00,Meteo,2013-08-25 10:43:00,
2013-08-25 05:48:00,80.0,71.0,29.89,SSW,203,1.0,3.0,74,0.00,,,0.00,Meteo,2013-08-25 10:48:00,
2013-08-25 05:53:00,80.0,71.0,29.89,SW,221,1.0,2.0,74,0.00,,,0.00,Meteo,2013-08-25 10:53:00,
2013-08-25 05:58:00,80.0,71.0,29.89,SSW,201,1.0,5.0,74,0.00,,,0.00,Meteo,2013-08-25 10:58:00,
2013-08-25 06:03:00,80.0,71.0,29.89,South,183,3.0,6.0,73,0.00,,,0.00,Meteo,2013-08-25 11:03:00,
2013-08-25 06:09:00,80.0,71.0,29.90,SSE,158,1.0,4.0,73,0.00,,,0.00,Meteo,2013-08-25 11:09:00,
2013-08-25 06:15:00,80.0,71.0,29.90,SSE,168,2.0,7.0,73,0.00,,,0.00,Meteo,2013-08-25 11:15:00,
2013-08-25 06:20:00,80.0,71.0,29.91,SW,224,4.0,9.0,73,0.00,,,0.00,Meteo,2013-08-25 11:20:00,
2013-08-25 06:25:00,80.0,71.0,29.91,SW,214,5.0,11.0,73,0.00,,,0.00,Meteo,2013-08-25 11:25:00,
2013-08-25 06:30:00,80.0,71.0,29.91,SSW,208,4.0,6.0,73,0.00,,,0.00,Meteo,2013-08-25 11:30:00,
2013-08-25 06:35:00,80.0,70.0,29.91,WSW,238,4.0,10.0,72,0.00,,,0.00,Meteo,2013-08-25 11:35:00,
2013-08-25 06:40:00,80.0,71.0,29.91,South,181,2.0,5.0,73,0.00,,,0.00,Meteo,2013-08-25 11:40:00,
2013-08-25 06:45:00,80.0,71.0,29.91,South,183,1.0,5.0,73,0.00,,,0.00,Meteo,2013-08-25 11:45:00,
2013-08-25 06:50:00,80.0,71.0,29.91,SSW,197,4.0,11.0,73,0.00,,,0.00,Meteo,2013-08-25 11:50:00,
2013-08-25 06:55:00,80.0,71.0,29.91,SW,218,4.0,9.0,73,0.00,,,0.00,Meteo,2013-08-25 11:55:00,
2013-08-25 07:00:00,80.0,71.0,29.91,SW,227,5.0,12.0,73,0.00,,,0.00,Meteo,2013-08-25 12:00:00,
2013-08-25 07:05:00,80.0,71.0,29.92,South,188,3.0,7.0,73,0.00,,,0.00,Meteo,2013-08-25 12:05:00,
2013-08-25 07:10:00,80.0,71.0,29.92,SSW,211,3.0,10.0,73,0.00,,,0.00,Meteo,2013-08-25 12:10:00,
2013-08-25 07:15:00,80.0,71.0,29.92,SSW,199,3.0,5.0,73,0.00,,,0.00,Meteo,2013-08-25 12:15:00,
2013-08-25 07:20:00,80.0,71.0,29.92,SSW,196,2.0,6.0,73,0.00,,,0.00,Meteo,2013-08-25 12:20:00,
2013-08-25 07:25:00,80.0,71.0,29.91,South,186,3.0,7.0,73,0.00,,,0.00,Meteo,2013-08-25 12:25:00,
2013-08-25 07:30:00,80.0,71.0,29.91,SW,221,2.0,8.0,73,0.00,,,0.00,Meteo,2013-08-25 12:30:00,
2013-08-25 07:35:00,80.0,71.0,29.92,SSW,192,1.0,2.0,73,0.00,,,0.00,Meteo,2013-08-25 12:35:00,
2013-08-25 07:41:00,80.0,71.0,29.92,SSW,194,2.0,6.0,73,0.00,,,0.00,Meteo,2013-08-25 12:41:00,
2013-08-25 07:46:00,80.0,71.0,29.92,SSW,208,2.0,5.0,73,0.00,,,0.00,Meteo,2013-08-25 12:46:00,
2013-08-25 07:51:00,80.0,71.0,29.92,South,188,3.0,6.0,73,0.00,,,0.00,Meteo,2013-08-25 12:51:00,
2013-08-25 07:56:00,80.0,71.0,29.92,South,177,2.0,8.0,73,0.00,,,0.00,Meteo,2013-08-25 12:56:00,
2013-08-25 08:01:00,81.0,72.0,29.92,South,190,4.0,9.0,73,0.00,,,0.00,Meteo,2013-08-25 13:01:00,
2013-08-25 08:06:00,81.0,72.0,29.92,SW,221,2.0,6.0,73,0.00,,,0.00,Meteo,2013-08-25 13:06:00,
2013-08-25 08:11:00,81.0,71.0,29.92,SSW,196,3.0,8.0,72,0.00,,,0.00,Meteo,2013-08-25 13:11:00,
2013-08-25 08:16:00,81.0,71.0,29.92,SSW,194,4.0,9.0,71,0.00,,,0.00,Meteo,2013-08-25 13:16:00,
2013-08-25 08:21:00,82.0,72.0,29.92,South,190,4.0,8.0,71,0.00,,,0.00,Meteo,2013-08-25 13:21:00,
2013-08-25 08:27:00,82.0,72.0,29.92,South,187,3.0,7.0,71,0.00,,,0.00,Meteo,2013-08-25 13:27:00,
2013-08-25 08:32:00,82.0,71.0,29.93,NE,44,0.0,2.0,70,0.00,,,0.00,Meteo,2013-08-25 13:32:00,
2013-08-25 08:37:00,82.0,71.0,29.92,SW,218,5.0,12.0,70,0.00,,,0.00,Meteo,2013-08-25 13:37:00,
2013-08-25 08:42:00,82.0,71.0,29.92,SW,229,1.0,3.0,70,0.00,,,0.00,Meteo,2013-08-25 13:42:00,
2013-08-25 08:47:00,82.0,71.0,29.92,SSW,207,3.0,8.0,69,0.00,,,0.00,Meteo,2013-08-25 13:47:00,
2013-08-25 08:52:00,83.0,72.0,29.92,SSW,197,1.0,3.0,70,0.00,,,0.00,Meteo,2013-08-25 13:52:00,
2013-08-25 08:57:00,83.0,72.0,29.91,SSE,151,1.0,4.0,69,0.00,,,0.00,Meteo,2013-08-25 13:57:00,
2013-08-25 09:02:00,83.0,72.0,29.91,South,183,3.0,6.0,69,0.00,,,0.00,Meteo,2013-08-25 14:02:00,
2013-08-25 09:07:00,84.0,72.0,29.91,South,191,5.0,10.0,68,0.00,,,0.00,Meteo,2013-08-25 14:07:00,
2013-08-25 09:12:00,84.0,72.0,29.91,SSW,201,2.0,5.0,68,0.00,,,0.00,Meteo,2013-08-25 14:12:00,
2013-08-25 09:17:00,84.0,72.0,29.91,South,188,3.0,6.0,67,0.00,,,0.00,Meteo,2013-08-25 14:17:00,
2013-08-25 09:22:00,84.0,72.0,29.91,South,183,1.0,4.0,67,0.00,,,0.00,Meteo,2013-08-25 14:22:00,
2013-08-25 09:27:00,85.0,72.0,29.91,SW,215,4.0,8.0,66,0.00,,,0.00,Meteo,2013-08-25 14:27:00,
2013-08-25 09:32:00,85.0,73.0,29.91,SSE,149,2.0,6.0,67,0.00,,,0.00,Meteo,2013-08-25 14:32:00,
2013-08-25 09:37:00,85.0,73.0,29.91,SW,220,2.0,5.0,67,0.00,,,0.00,Meteo,2013-08-25 14:37:00,
2013-08-25 09:42:00,85.0,72.0,29.91,SSW,212,4.0,15.0,66,0.00,,,0.00,Meteo,2013-08-25 14:42:00,
2013-08-25 09:47:00,85.0,72.0,29.91,SSW,206,2.0,5.0,65,0.00,,,0.00,Meteo,2013-08-25 14:47:00,
2013-08-25 09:52:00,86.0,73.0,29.90,SSW,206,3.0,6.0,65,0.00,,,0.00,Meteo,2013-08-25 14:52:00,
2013-08-25 09:57:00,86.0,73.0,29.90,SSW,208,1.0,4.0,65,0.00,,,0.00,Meteo,2013-08-25 14:57:00,
2013-08-25 10:02:00,87.0,73.0,29.90,South,177,3.0,5.0,64,0.00,,,0.00,Meteo,2013-08-25 15:02:00,
2013-08-25 10:07:00,87.0,73.0,29.90,South,185,2.0,4.0,64,0.00,,,0.00,Meteo,2013-08-25 15:07:00,
2013-08-25 10:12:00,87.0,73.0,29.90,SSE,154,3.0,4.0,63,0.00,,,0.00,Meteo,2013-08-25 15:12:00,
2013-08-25 10:17:00,87.0,73.0,29.90,South,178,3.0,6.0,63,0.00,,,0.00,Meteo,2013-08-25 15:17:00,
2013-08-25 10:22:00,87.0,72.0,29.90,SSW,192,2.0,7.0,62,0.00,,,0.00,Meteo,2013-08-25 15:22:00,
2013-08-25 10:27:00,87.0,73.0,29.89,SE,129,2.0,4.0,63,0.00,,,0.00,Meteo,2013-08-25 15:27:00,
2013-08-25 10:32:00,87.0,73.0,29.90,SSW,204,4.0,10.0,64,0.00,,,0.00,Meteo,2013-08-25 15:32:00,
2013-08-25 10:37:00,87.0,73.0,29.90,SSW,194,3.0,9.0,63,0.00,,,0.00,Meteo,2013-08-25 15:37:00,
2013-08-25 10:42:00,87.0,73.0,29.90,SSW,199,2.0,4.0,63,0.00,,,0.00,Meteo,2013-08-25 15:42:00,
2013-08-25 10:47:00,87.0,73.0,29.90,SSW,192,4.0,8.0,63,0.00,,,0.00,Meteo,2013-08-25 15:47:00,
2013-08-25 10:52:00,87.0,73.0,29.90,SSW,202,3.0,7.0,63,0.00,,,0.00,Meteo,2013-08-25 15:52:00,
2013-08-25 10:57:00,87.0,73.0,29.90,SSW,205,2.0,6.0,64,0.00,,,0.00,Meteo,2013-08-25 15:57:00,
2013-08-25 11:02:00,88.0,74.0,29.90,SSW,200,3.0,11.0,63,0.00,,,0.00,Meteo,2013-08-25 16:02:00,
2013-08-25 11:07:00,88.0,73.0,29.89,SSE,168,2.0,5.0,62,0.00,,,0.00,Meteo,2013-08-25 16:07:00,
2013-08-25 11:12:00,89.0,74.0,29.89,South,191,4.0,8.0,61,0.00,,,0.00,Meteo,2013-08-25 16:12:00,
2013-08-25 11:17:00,89.0,74.0,29.89,South,177,3.0,11.0,61,0.00,,,0.00,Meteo,2013-08-25 16:17:00,
2013-08-25 11:22:00,89.0,73.0,29.89,SSE,165,2.0,6.0,60,0.00,,,0.00,Meteo,2013-08-25 16:22:00,
2013-08-25 11:28:00,89.0,74.0,29.89,SSW,195,3.0,5.0,61,0.00,,,0.00,Meteo,2013-08-25 16:28:00,
2013-08-25 11:33:00,90.0,74.0,29.89,WSW,243,1.0,3.0,60,0.00,,,0.00,Meteo,2013-08-25 16:33:00,
2013-08-25 11:38:00,90.0,75.0,29.89,SSW,194,2.0,3.0,61,0.00,,,0.00,Meteo,2013-08-25 16:38:00,
2013-08-25 11:43:00,90.0,74.0,29.89,SSE,163,1.0,3.0,59,0.00,,,0.00,Meteo,2013-08-25 16:43:00,
2013-08-25 11:48:00,90.0,73.0,29.89,SW,218,2.0,8.0,58,0.00,,,0.00,Meteo,2013-08-25 16:48:00,
2013-08-25 11:53:00,90.0,74.0,29.90,SW,214,1.0,2.0,60,0.00,,,0.00,Meteo,2013-08-25 16:53:00,
2013-08-25 11:58:00,90.0,74.0,29.90,WSW,246,2.0,4.0,59,0.00,,,0.00,Meteo,2013-08-25 16:58:00,
2013-08-25 12:03:00,89.0,73.0,29.90,SSW,196,0.0,2.0,59,0.00,,,0.00,Meteo,2013-08-25 17:03:00,
2013-08-25 12:08:00,89.0,73.0,29.90,South,186,1.0,3.0,60,0.00,,,0.00,Meteo,2013-08-25 17:08:00,
2013-08-25 12:13:00,89.0,73.0,29.90,SW,220,3.0,6.0,60,0.00,,,0.00,Meteo,2013-08-25 17:13:00,
2013-08-25 12:18:00,89.0,73.0,29.90,South,188,1.0,4.0,60,0.00,,,0.00,Meteo,2013-08-25 17:18:00,
2013-08-25 12:23:00,90.0,75.0,29.90,South,169,1.0,3.0,61,0.00,,,0.00,Meteo,2013-08-25 17:23:00,
2013-08-25 12:28:00,91.0,75.0,29.90,SSW,199,3.0,7.0,59,0.00,,,0.00,Meteo,2013-08-25 17:28:00,
2013-08-25 12:33:00,91.0,74.0,29.90,SSE,162,1.0,4.0,58,0.00,,,0.00,Meteo,2013-08-25 17:33:00,
2013-08-25 12:38:00,91.0,74.0,29.90,SSW,197,2.0,4.0,57,0.00,,,0.00,Meteo,2013-08-25 17:38:00,
2013-08-25 12:43:00,91.0,74.0,29.90,SE,135,1.0,2.0,58,0.00,,,0.00,Meteo,2013-08-25 17:43:00,
2013-08-25 12:49:00,91.0,74.0,29.90,SSW,194,2.0,4.0,58,0.00,,,0.00,Meteo,2013-08-25 17:49:00,
2013-08-25 12:54:00,92.0,75.0,29.89,SSW,199,2.0,5.0,57,0.00,,,0.00,Meteo,2013-08-25 17:54:00,
2013-08-25 12:59:00,92.0,75.0,29.89,NW,308,1.0,3.0,57,0.00,,,0.00,Meteo,2013-08-25 17:59:00,
2013-08-25 13:04:00,93.0,76.0,29.89,SSE,166,1.0,3.0,57,0.00,,,0.00,Meteo,2013-08-25 18:04:00,
2013-08-25 13:09:00,93.0,74.0,29.89,SSW,197,1.0,3.0,55,0.00,,,0.00,Meteo,2013-08-25 18:09:00,
2013-08-25 13:14:00,93.0,74.0,29.89,WSW,247,2.0,5.0,54,0.00,,,0.00,Meteo,2013-08-25 18:14:00,
2013-08-25 13:19:00,94.0,74.0,29.89,South,180,4.0,8.0,53,0.00,,,0.00,Meteo,2013-08-25 18:19:00,
2013-08-25 13:24:00,94.0,74.0,29.89,South,173,1.0,4.0,53,0.00,,,0.00,Meteo,2013-08-25 18:24:00,
2013-08-25 13:29:00,94.0,74.0,29.88,West,264,3.0,6.0,52,0.00,,,0.00,Meteo,2013-08-25 18:29:00,
2013-08-25 13:34:00,94.0,74.0,29.88,South,187,3.0,8.0,52,0.00,,,0.00,Meteo,2013-08-25 18:34:00,
2013-08-25 13:39:00,94.0,74.0,29.88,SSW,194,1.0,3.0,52,0.00,,,0.00,Meteo,2013-08-25 18:39:00,
2013-08-25 13:44:00,94.0,74.0,29.88,South,188,1.0,4.0,53,0.00,,,0.00,Meteo,2013-08-25 18:44:00,
2013-08-25 13:49:00,95.0,76.0,29.88,SSW,194,1.0,3.0,54,0.00,,,0.00,Meteo,2013-08-25 18:49:00,
2013-08-25 13:54:00,95.0,74.0,29.88,SW,214,3.0,7.0,51,0.00,,,0.00,Meteo,2013-08-25 18:54:00,
2013-08-25 13:59:00,95.0,75.0,29.88,South,188,3.0,10.0,52,0.00,,,0.00,Meteo,2013-08-25 18:59:00,
2013-08-25 14:04:00,95.0,75.0,29.88,SSW,207,4.0,8.0,52,0.00,,,0.00,Meteo,2013-08-25 19:04:00,
2013-08-25 14:09:00,96.0,74.0,29.88,South,190,3.0,5.0,50,0.00,,,0.00,Meteo,2013-08-25 19:09:00,
2013-08-25 14:14:00,96.0,74.0,29.88,SSW,209,2.0,4.0,50,0.00,,,0.00,Meteo,2013-08-25 19:14:00,
2013-08-25 14:19:00,96.0,74.0,29.88,SSW,204,3.0,8.0,50,0.00,,,0.00,Meteo,2013-08-25 19:19:00,
2013-08-25 14:24:00,96.0,74.0,29.88,SSE,167,2.0,6.0,50,0.00,,,0.00,Meteo,2013-08-25 19:24:00,
2013-08-25 14:29:00,96.0,74.0,29.88,SSW,193,4.0,7.0,50,0.00,,,0.00,Meteo,2013-08-25 19:29:00,
2013-08-25 14:34:00,96.0,74.0,29.88,South,173,2.0,6.0,50,0.00,,,0.00,Meteo,2013-08-25 19:34:00,
2013-08-25 14:39:00,96.0,74.0,29.88,SSW,193,3.0,7.0,49,0.00,,,0.00,Meteo,2013-08-25 19:39:00,
2013-08-25 14:44:00,96.0,74.0,29.88,South,181,3.0,11.0,50,0.00,,,0.00,Meteo,2013-08-25 19:44:00,
2013-08-25 14:49:00,96.0,74.0,29.88,South,183,1.0,6.0,49,0.00,,,0.00,Meteo,2013-08-25 19:49:00,
2013-08-25 14:54:00,96.0,74.0,29.88,South,188,3.0,6.0,49,0.00,,,0.00,Meteo,2013-08-25 19:54:00,
2013-08-25 14:59:00,96.0,74.0,29.88,WSW,245,1.0,3.0,49,0.00,,,0.00,Meteo,2013-08-25 19:59:00,
2013-08-25 15:04:00,96.0,74.0,29.88,South,171,1.0,4.0,50,0.00,,,0.00,Meteo,2013-08-25 20:04:00,
2013-08-25 15:09:00,96.0,74.0,29.88,South,186,2.0,5.0,49,0.00,,,0.00,Meteo,2013-08-25 20:09:00,
2013-08-25 15:14:00,96.0,74.0,29.88,South,189,3.0,8.0,49,0.00,,,0.00,Meteo,2013-08-25 20:14:00,
2013-08-25 15:19:00,97.0,74.0,29.88,SSW,208,3.0,7.0,48,0.00,,,0.00,Meteo,2013-08-25 20:19:00,
2013-08-25 15:24:00,97.0,73.0,29.88,SSW,206,2.0,5.0,47,0.00,,,0.00,Meteo,2013-08-25 20:24:00,
2013-08-25 15:29:00,96.0,73.0,29.88,South,179,3.0,6.0,48,0.00,,,0.00,Meteo,2013-08-25 20:29:00,
2013-08-25 15:34:00,97.0,73.0,29.87,SSW,196,2.0,6.0,47,0.00,,,0.00,Meteo,2013-08-25 20:34:00,
2013-08-25 15:39:00,97.0,73.0,29.88,West,261,2.0,5.0,47,0.00,,,0.00,Meteo,2013-08-25 20:39:00,
2013-08-25 15:44:00,97.0,74.0,29.88,SSW,202,1.0,2.0,48,0.00,,,0.00,Meteo,2013-08-25 20:44:00,
2013-08-25 15:49:00,97.0,73.0,29.88,SW,220,3.0,5.0,47,0.00,,,0.00,Meteo,2013-08-25 20:49:00,
2013-08-25 15:54:00,97.0,73.0,29.88,SSW,202,2.0,5.0,46,0.00,,,0.00,Meteo,2013-08-25 20:54:00,
2013-08-25 15:59:00,97.0,73.0,29.88,SSW,192,2.0,5.0,46,0.00,,,0.00,Meteo,2013-08-25 20:59:00,
2013-08-25 16:04:00,97.0,73.0,29.88,South,174,1.0,5.0,47,0.00,,,0.00,Meteo,2013-08-25 21:04:00,
2013-08-25 16:09:00,98.0,74.0,29.87,South,182,2.0,5.0,46,0.00,,,0.00,Meteo,2013-08-25 21:09:00,
2013-08-25 16:14:00,98.0,73.0,29.88,South,184,3.0,8.0,45,0.00,,,0.00,Meteo,2013-08-25 21:14:00,
2013-08-25 16:19:00,98.0,73.0,29.88,SSE,149,1.0,4.0,45,0.00,,,0.00,Meteo,2013-08-25 21:19:00,
2013-08-25 16:24:00,98.0,73.0,29.88,SW,215,4.0,8.0,45,0.00,,,0.00,Meteo,2013-08-25 21:24:00,
2013-08-25 16:29:00,98.0,73.0,29.87,SSW,198,1.0,4.0,45,0.00,,,0.00,Meteo,2013-08-25 21:29:00,
2013-08-25 16:34:00,98.0,74.0,29.87,West,263,4.0,12.0,46,0.00,,,0.00,Meteo,2013-08-25 21:34:00,
2013-08-25 16:39:00,98.0,73.0,29.87,SE,145,1.0,2.0,45,0.00,,,0.00,Meteo,2013-08-25 21:39:00,
2013-08-25 16:44:00,98.0,74.0,29.87,SSW,206,2.0,4.0,46,0.00,,,0.00,Meteo,2013-08-25 21:44:00,
2013-08-25 16:49:00,98.0,73.0,29.87,South,169,2.0,4.0,45,0.00,,,0.00,Meteo,2013-08-25 21:49:00,
2013-08-25 16:54:00,98.0,73.0,29.88,SSW,194,3.0,8.0,45,0.00,,,0.00,Meteo,2013-08-25 21:54:00,
2013-08-25 16:59:00,98.0,73.0,29.88,SSW,207,2.0,4.0,45,0.00,,,0.00,Meteo,2013-08-25 21:59:00,
2013-08-25 17:04:00,98.0,74.0,29.88,South,179,1.0,3.0,46,0.00,,,0.00,Meteo,2013-08-25 22:04:00,
2013-08-25 17:09:00,98.0,73.0,29.88,SW,235,0.0,1.0,45,0.00,,,0.00,Meteo,2013-08-25 22:09:00,
2013-08-25 17:14:00,98.0,74.0,29.88,SSW,205,1.0,3.0,46,0.00,,,0.00,Meteo,2013-08-25 22:14:00,
2013-08-25 17:20:00,98.0,74.0,29.88,South,170,1.0,5.0,46,0.00,,,0.00,Meteo,2013-08-25 22:20:00,
2013-08-25 17:25:00,98.0,73.0,29.88,SSE,160,2.0,6.0,45,0.00,,,0.00,Meteo,2013-08-25 22:25:00,
2013-08-25 17:30:00,98.0,73.0,29.88,SSW,209,2.0,5.0,45,0.00,,,0.00,Meteo,2013-08-25 22:30:00,
2013-08-25 17:35:00,98.0,73.0,29.88,SSW,207,2.0,4.0,45,0.00,,,0.00,Meteo,2013-08-25 22:35:00,
2013-08-25 17:40:00,97.0,73.0,29.88,South,188,2.0,3.0,46,0.00,,,0.00,Meteo,2013-08-25 22:40:00,
2013-08-25 17:45:00,97.0,73.0,29.88,SSW,206,3.0,6.0,46,0.00,,,0.00,Meteo,2013-08-25 22:45:00,
2013-08-25 17:50:00,97.0,73.0,29.88,South,186,1.0,4.0,47,0.00,,,0.00,Meteo,2013-08-25 22:50:00,
2013-08-25 17:55:00,96.0,73.0,29.88,SSW,196,2.0,4.0,47,0.00,,,0.00,Meteo,2013-08-25 22:55:00,
2013-08-25 18:00:00,96.0,73.0,29.88,SSW,197,2.0,5.0,47,0.00,,,0.00,Meteo,2013-08-25 23:00:00,
2013-08-25 18:05:00,96.0,73.0,29.88,South,187,1.0,3.0,47,0.00,,,0.00,Meteo,2013-08-25 23:05:00,
2013-08-25 18:10:00,96.0,73.0,29.88,WSW,251,1.0,2.0,47,0.00,,,0.00,Meteo,2013-08-25 23:10:00,
2013-08-25 18:15:00,95.0,72.0,29.88,South,170,1.0,2.0,48,0.00,,,0.00,Meteo,2013-08-25 23:15:00,
2013-08-25 18:20:00,95.0,73.0,29.88,SW,222,1.0,3.0,49,0.00,,,0.00,Meteo,2013-08-25 23:20:00,
2013-08-25 18:25:00,95.0,73.0,29.88,SSE,149,0.0,1.0,49,0.00,,,0.00,Meteo,2013-08-25 23:25:00,
2013-08-25 18:30:00,95.0,73.0,29.88,South,180,0.0,1.0,49,0.00,,,0.00,Meteo,2013-08-25 23:30:00,
2013-08-25 18:35:00,94.0,73.0,29.88,South,180,0.0,1.0,50,0.00,,,0.00,Meteo,2013-08-25 23:35:00,
2013-08-25 18:40:00,94.0,73.0,29.88,North,0,0.0,0.0,51,0.00,,,0.00,Meteo,2013-08-25 23:40:00,
2013-08-25 18:46:00,94.0,73.0,29.88,North,0,0.0,0.0,51,0.00,,,0.00,Meteo,2013-08-25 23:46:00,
2013-08-25 18:51:00,94.0,74.0,29.88,SW,230,0.0,1.0,52,0.00,,,0.00,Meteo,2013-08-25 23:51:00,
2013-08-25 18:56:00,94.0,74.0,29.88,South,173,0.0,1.0,53,0.00,,,0.00,Meteo,2013-08-25 23:56:00,
2013-08-25 19:01:00,94.0,74.0,29.88,North,0,0.0,0.0,53,0.00,,,0.00,Meteo,2013-08-26 00:01:00,
2013-08-25 19:06:00,93.0,73.0,29.88,North,0,0.0,0.0,53,0.00,,,0.00,Meteo,2013-08-26 00:06:00,
2013-08-25 19:11:00,93.0,74.0,29.88,North,0,0.0,0.0,54,0.00,,,0.00,Meteo,2013-08-26 00:11:00,
2013-08-25 19:16:00,93.0,74.0,29.88,North,0,0.0,0.0,55,0.00,,,0.00,Meteo,2013-08-26 00:16:00,
2013-08-25 19:21:00,92.0,74.0,29.88,South,175,0.0,1.0,55,0.00,,,0.00,Meteo,2013-08-26 00:21:00,
2013-08-25 19:26:00,92.0,74.0,29.88,SSW,202,1.0,2.0,55,0.00,,,0.00,Meteo,2013-08-26 00:26:00,
2013-08-25 19:32:00,92.0,74.0,29.88,SW,215,0.0,1.0,56,0.00,,,0.00,Meteo,2013-08-26 00:32:00,
2013-08-25 19:37:00,91.0,74.0,29.88,North,0,0.0,0.0,57,0.00,,,0.00,Meteo,2013-08-26 00:37:00,
2013-08-25 19:42:00,91.0,74.0,29.88,North,0,0.0,0.0,58,0.00,,,0.00,Meteo,2013-08-26 00:42:00,
2013-08-25 19:47:00,91.0,75.0,29.88,North,0,0.0,0.0,59,0.00,,,0.00,Meteo,2013-08-26 00:47:00,
2013-08-25 19:52:00,90.0,74.0,29.88,North,0,0.0,0.0,60,0.00,,,0.00,Meteo,2013-08-26 00:52:00,
2013-08-25 19:57:00,90.0,75.0,29.88,North,0,0.0,0.0,61,0.00,,,0.00,Meteo,2013-08-26 00:57:00,
2013-08-25 20:02:00,90.0,75.0,29.89,North,0,0.0,0.0,62,0.00,,,0.00,Meteo,2013-08-26 01:02:00,
2013-08-25 20:07:00,89.0,75.0,29.89,North,0,0.0,0.0,63,0.00,,,0.00,Meteo,2013-08-26 01:07:00,
2013-08-25 20:12:00,89.0,75.0,29.89,North,0,0.0,0.0,63,0.00,,,0.00,Meteo,2013-08-26 01:12:00,
2013-08-25 20:17:00,89.0,75.0,29.89,North,0,0.0,0.0,63,0.00,,,0.00,Meteo,2013-08-26 01:17:00,
2013-08-25 20:22:00,88.0,74.0,29.89,North,0,0.0,0.0,63,0.00,,,0.00,Meteo,2013-08-26 01:22:00,
2013-08-25 20:27:00,88.0,74.0,29.89,North,0,0.0,0.0,64,0.00,,,0.00,Meteo,2013-08-26 01:27:00,
2013-08-25 20:32:00,88.0,75.0,29.90,North,0,0.0,0.0,65,0.00,,,0.00,Meteo,2013-08-26 01:32:00,
2013-08-25 20:37:00,87.0,73.0,29.90,SW,222,0.0,2.0,64,0.00,,,0.00,Meteo,2013-08-26 01:37:00,
2013-08-25 20:42:00,87.0,74.0,29.90,SSE,155,0.0,1.0,65,0.00,,,0.00,Meteo,2013-08-26 01:42:00,
2013-08-25 20:47:00,87.0,74.0,29.90,North,0,0.0,0.0,65,0.00,,,0.00,Meteo,2013-08-26 01:47:00,
2013-08-25 20:52:00,87.0,74.0,29.90,SSE,165,0.0,1.0,65,0.00,,,0.00,Meteo,2013-08-26 01:52:00,
2013-08-25 20:57:00,87.0,74.0,29.90,North,0,0.0,0.0,66,0.00,,,0.00,Meteo,2013-08-26 01:57:00,
2013-08-25 21:03:00,87.0,74.0,29.90,North,0,0.0,0.0,66,0.00,,,0.00,Meteo,2013-08-26 02:03:00,
2013-08-25 21:09:00,86.0,73.0,29.91,SSE,165,0.0,1.0,66,0.00,,,0.00,Meteo,2013-08-26 02:09:00,
2013-08-25 21:14:00,86.0,74.0,29.91,North,0,0.0,0.0,67,0.00,,,0.00,Meteo,2013-08-26 02:14:00,
2013-08-25 21:19:00,86.0,74.0,29.91,North,0,0.0,0.0,67,0.00,,,0.00,Meteo,2013-08-26 02:19:00,
2013-08-25 21:24:00,86.0,74.0,29.91,North,0,0.0,0.0,68,0.00,,,0.00,Meteo,2013-08-26 02:24:00,
2013-08-25 21:29:00,86.0,74.0,29.91,North,0,0.0,0.0,68,0.00,,,0.00,Meteo,2013-08-26 02:29:00,
2013-08-25 21:34:00,85.0,73.0,29.91,North,0,0.0,0.0,68,0.00,,,0.00,Meteo,2013-08-26 02:34:00,
2013-08-25 21:39:00,85.0,73.0,29.90,South,184,0.0,1.0,68,0.00,,,0.00,Meteo,2013-08-26 02:39:00,
2013-08-25 21:44:00,85.0,73.0,29.90,SSE,165,1.0,2.0,68,0.00,,,0.00,Meteo,2013-08-26 02:44:00,
2013-08-25 21:49:00,85.0,74.0,29.90,South,179,0.0,3.0,69,0.00,,,0.00,Meteo,2013-08-26 02:49:00,
2013-08-25 21:54:00,85.0,74.0,29.90,North,0,0.0,0.0,69,0.00,,,0.00,Meteo,2013-08-26 02:54:00,
2013-08-25 21:59:00,85.0,74.0,29.90,South,181,1.0,3.0,69,0.00,,,0.00,Meteo,2013-08-26 02:59:00,
2013-08-25 22:04:00,85.0,74.0,29.90,South,177,0.0,2.0,69,0.00,,,0.00,Meteo,2013-08-26 03:04:00,
2013-08-25 22:09:00,85.0,73.0,29.89,SSW,194,0.0,1.0,68,0.00,,,0.00,Meteo,2013-08-26 03:09:00,
2013-08-25 22:14:00,85.0,73.0,29.89,SE,142,0.0,1.0,68,0.00,,,0.00,Meteo,2013-08-26 03:14:00,
2013-08-25 22:19:00,85.0,74.0,29.88,SW,227,1.0,3.0,69,0.00,,,0.00,Meteo,2013-08-26 03:19:00,
2013-08-25 22:24:00,85.0,74.0,29.88,SE,142,0.0,1.0,69,0.00,,,0.00,Meteo,2013-08-26 03:24:00,
2013-08-25 22:29:00,85.0,74.0,29.89,ESE,119,0.0,1.0,69,0.00,,,0.00,Meteo,2013-08-26 03:29:00,
2013-08-25 22:34:00,85.0,74.0,29.90,SSE,153,0.0,1.0,69,0.00,,,0.00,Meteo,2013-08-26 03:34:00,
2013-08-25 22:39:00,85.0,73.0,29.90,SE,125,0.0,1.0,68,0.00,,,0.00,Meteo,2013-08-26 03:39:00,
2013-08-25 22:45:00,85.0,74.0,29.89,SSE,151,0.0,1.0,69,0.00,,,0.00,Meteo,2013-08-26 03:45:00,
2013-08-25 22:51:00,85.0,74.0,29.88,South,189,0.0,1.0,69,0.00,,,0.00,Meteo,2013-08-26 03:51:00,
2013-08-25 22:56:00,85.0,74.0,29.87,South,177,0.0,1.0,69,0.00,,,0.00,Meteo,2013-08-26 03:56:00,
2013-08-25 23:01:00,85.0,74.0,29.87,ESE,107,0.0,1.0,69,0.00,,,0.00,Meteo,2013-08-26 04:01:00,
2013-08-25 23:02:00,85.0,74.0,29.87,SSE,164,1.0,5.0,69,0.00,,,0.00,Meteo,2013-08-26 04:02:00,
2013-08-25 23:03:00,85.0,74.0,29.87,SW,217,1.0,4.0,69,0.00,,,0.00,Meteo,2013-08-26 04:03:00,
2013-08-25 23:05:00,85.0,74.0,29.88,WSW,258,0.0,1.0,69,0.00,,,0.00,Meteo,2013-08-26 04:05:00,
2013-08-25 23:08:00,85.0,74.0,29.87,SSE,157,0.0,2.0,69,0.00,,,0.00,Meteo,2013-08-26 04:08:00,
2013-08-25 23:13:00,85.0,74.0,29.87,SSE,162,1.0,2.0,69,0.00,,,0.00,Meteo,2013-08-26 04:13:00,
2013-08-25 23:18:00,85.0,74.0,29.88,SSE,160,1.0,3.0,70,0.00,,,0.00,Meteo,2013-08-26 04:18:00,
2013-08-25 23:23:00,85.0,74.0,29.89,South,186,0.0,1.0,70,0.00,,,0.00,Meteo,2013-08-26 04:23:00,
2013-08-25 23:28:00,85.0,74.0,29.91,South,180,1.0,2.0,70,0.00,,,0.00,Meteo,2013-08-26 04:28:00,
2013-08-25 23:34:00,85.0,74.0,29.91,South,170,1.0,1.0,70,0.00,,,0.00,Meteo,2013-08-26 04:34:00,
2013-08-25 23:39:00,85.0,74.0,29.93,North,3,1.0,3.0,69,0.00,,,0.00,Meteo,2013-08-26 04:39:00,
2013-08-25 23:44:00,85.0,71.0,29.95,ENE,62,4.0,8.0,62,0.00,,,0.00,Meteo,2013-08-26 04:44:00,
2013-08-25 23:49:00,81.0,70.0,29.96,North,6,2.0,4.0,69,0.00,,,0.00,Meteo,2013-08-26 04:49:00,
2013-08-25 23:54:00,78.0,70.0,29.96,NE,43,2.0,6.0,77,0.01,,,0.00,Meteo,2013-08-26 04:54:00,
2013-08-25 23:59:00,75.0,69.0,29.95,ENE,64,5.0,8.0,82,0.01,,,0.00,Meteo,2013-08-26 04:59:00,